Location: Newark
(51.3318°N, 0.0053°E)
Time: 04:42:28
(UTC+00:00)

CUBEBUG 2 - Pass Details

Date: 08 July 2022
Orbit: 584 x 692 km, 97.7° (Epoch: 14 August)

Event Time Altitude Azimuth Distance (km) Brightness Sun altitude
Rises 01:41:35 0° 30° (NNE) 2,860 ? -13.2°
Reaches altitude 10° 01:44:50 10° 58° (ENE) 1,970 ? -13.0°
Maximum altitude 01:46:58 13° 88° (E) 1,761 ? -12.9°
Drops below altitude 10° 01:49:07 10° 118° (ESE) 1,993 ? -12.7°
Sets 01:52:25 0° 145° (SE) 2,919 ? -12.5°
